Weather History for Oklahoma City / Page Muni, OK

Change the Weather History Date:

Sunday, December 15, 2013

  Actual Average (KOKC) Record (KOKC)
Temperature  
Mean Temperature 42 °F 40 °F  
Max Temperature 59 °F 50 °F 75 °F (1948)
Min Temperature 26 °F 30 °F 3 °F (1989)
Degree Days  
Heating Degree Days 22 25  
Month to date heating degree days 346  
Since 1 July heating degree days 945  
Moisture  
Dew Point 26 °F    
Average Humidity 63    
Maximum Humidity 93    
Minimum Humidity 27    
Precipitation  
Precipitation 0.00 in 0.07 in 1.53 in (1984)
Month to date precipitation 0.97  
Year to date precipitation 35.61  
Snow  
Snow 0.00 in 0.00 in 2.30 in (1911)
Month to date snowfall 0.8  
Since 1 July snowfall 1.2  
Snow Depth -    
Sea Level Pressure  
Sea Level Pressure 30.21 in    
Wind  
Wind Speed 8 mph (SW)    
Max Wind Speed 17 mph    
Max Gust Speed 24 mph    
Visibility 10 miles    
Events      
T = Trace of Precipitation, MM = Missing Value Source: NWS Daily Summary

Daily Weather History Graph

Daily Weather History Graph

Search for Another Location

Airport:

Trip Planner

Search our weather history database for the weather conditions in past years. The results will help you decide how hot, cold, wet, or windy it might be!

Date:

Astronomy

Dec. 15, 2013 Rise Set
Actual Time 7:33 AM CST 5:19 PM CST
Civil Twilight 7:05 AM CST 5:48 PM CST
Nautical Twilight 6:33 AM CST 6:20 PM CST
Astronomical Twilight 6:02 AM CST 6:51 PM CST
Moon 4:22 PM CST (12/15) 5:53 AM CST (12/15)
Length of Visible Light 10h 43m
Length of Day
9h 46m
Waxing Gibbous, 98% of the Moon is Illuminated
Dec 15
Waxing Gibbous
Dec 17
Full
Dec 25
Last Quarter
Jan 1
New
Jan 7
First Quarter

Hourly Weather History & Observations

Time (CST) Temp. Windchill Dew Point Humidity Pressure Visibility Wind Dir Wind Speed Gust Speed Precip Events Conditions
12:15 AM 28.4 °F 21.2 °F 23.0 °F 80% 30.29 in 10.0 mi West 6.9 mph - N/A   Unknown
12:35 AM 28.4 °F 22.2 °F 23.0 °F 80% 30.28 in 10.0 mi West 5.8 mph - N/A   Unknown
12:55 AM 28.4 °F 21.2 °F 23.0 °F 80% 30.27 in 10.0 mi West 6.9 mph - N/A   Unknown
1:15 AM 28.4 °F 22.2 °F 23.0 °F 80% 30.27 in 10.0 mi WSW 5.8 mph - N/A   Unknown
1:35 AM 28.4 °F 22.2 °F 23.0 °F 80% 30.27 in 10.0 mi WSW 5.8 mph - N/A   Unknown
1:55 AM 28.4 °F 22.2 °F 24.8 °F 86% 30.27 in 10.0 mi WSW 5.8 mph - N/A   Unknown
2:15 AM 28.4 °F 23.3 °F 24.8 °F 86% 30.27 in 10.0 mi SW 4.6 mph - N/A   Unknown
2:35 AM 28.4 °F 23.3 °F 23.0 °F 80% 30.27 in 10.0 mi SW 4.6 mph - N/A   Unknown
2:55 AM 26.6 °F 21.2 °F 23.0 °F 86% 30.27 in 10.0 mi SW 4.6 mph - N/A   Unknown
3:15 AM 26.6 °F 21.2 °F 23.0 °F 86% 30.27 in 10.0 mi SW 4.6 mph - N/A   Unknown
3:35 AM 26.6 °F 20.0 °F 23.0 °F 86% 30.27 in 10.0 mi SW 5.8 mph - N/A   Unknown
3:55 AM 26.6 °F 20.0 °F 23.0 °F 86% 30.26 in 10.0 mi SW 5.8 mph - N/A   Unknown
4:15 AM 26.6 °F 21.2 °F 23.0 °F 86% 30.26 in 10.0 mi SW 4.6 mph - N/A   Unknown
4:35 AM 28.4 °F 23.3 °F 23.0 °F 80% 30.25 in 10.0 mi SW 4.6 mph - N/A   Unknown
4:55 AM 28.4 °F 22.2 °F 23.0 °F 80% 30.25 in 10.0 mi SW 5.8 mph - N/A   Unknown
5:15 AM 28.4 °F 22.2 °F 23.0 °F 80% 30.24 in 10.0 mi SW 5.8 mph - N/A   Unknown
5:35 AM 28.4 °F 21.2 °F 24.8 °F 86% 30.24 in 10.0 mi SW 6.9 mph - N/A   Unknown
5:55 AM 28.4 °F 21.2 °F 24.8 °F 86% 30.24 in 10.0 mi SW 6.9 mph - N/A   Unknown
6:15 AM 28.4 °F 21.2 °F 23.0 °F 80% 30.25 in 10.0 mi SW 6.9 mph - N/A   Unknown
6:35 AM 26.6 °F 19.1 °F 23.0 °F 86% 30.25 in 10.0 mi SW 6.9 mph - N/A   Unknown
6:55 AM 26.6 °F 19.1 °F 23.0 °F 86% 30.25 in 10.0 mi SW 6.9 mph - N/A   Unknown
7:15 AM 26.6 °F 19.1 °F 23.0 °F 86% 30.25 in 10.0 mi SSW 6.9 mph - N/A   Unknown
7:35 AM 26.6 °F 18.2 °F 24.8 °F 93% 30.25 in 10.0 mi SSW 8.1 mph - N/A   Clear
7:55 AM 26.6 °F 19.1 °F 24.8 °F 93% 30.25 in 10.0 mi SW 6.9 mph - N/A   Clear
8:15 AM 28.4 °F 21.2 °F 24.8 °F 86% 30.25 in 10.0 mi SSW 6.9 mph - N/A   Clear
8:35 AM 28.4 °F 20.4 °F 26.6 °F 93% 30.25 in 10.0 mi SW 8.1 mph - N/A   Clear
8:55 AM 30.2 °F 23.4 °F 26.6 °F 86% 30.26 in 10.0 mi SW 6.9 mph - N/A   Clear
9:15 AM 32.0 °F 26.4 °F 28.4 °F 87% 30.26 in 10.0 mi SW 5.8 mph - N/A   Clear
9:35 AM 35.6 °F 29.9 °F 28.4 °F 75% 30.26 in 10.0 mi SSW 6.9 mph - N/A   Clear
9:55 AM 37.4 °F 32.1 °F 28.4 °F 70% 30.26 in 10.0 mi SW 6.9 mph - N/A   Clear
10:15 AM 39.2 °F 34.2 °F 30.2 °F 70% 30.27 in 10.0 mi SSW 6.9 mph - N/A   Clear
10:35 AM 42.8 °F 38.6 °F 32.0 °F 66% 30.27 in 10.0 mi SW 6.9 mph - N/A   Clear
10:55 AM 44.6 °F 40.2 °F 32.0 °F 61% 30.26 in 10.0 mi SW 8.1 mph - N/A   Clear
11:15 AM 46.4 °F 42.4 °F 32.0 °F 57% 30.26 in 10.0 mi WSW 8.1 mph - N/A   Clear
11:35 AM 50.0 °F - 28.4 °F 43% 30.25 in 10.0 mi WSW 10.4 mph - N/A   Clear
11:55 AM 53.6 °F - 26.6 °F 35% 30.25 in 10.0 mi WSW 10.4 mph - N/A   Clear
12:15 PM 55.4 °F - 24.8 °F 31% 30.23 in 10.0 mi WSW 15.0 mph - N/A   Clear
12:35 PM 57.2 °F - 24.8 °F 29% 30.22 in 10.0 mi WSW 16.1 mph - N/A   Clear
12:55 PM 57.2 °F - 24.8 °F 29% 30.21 in 10.0 mi SW 16.1 mph 20.7 mph N/A   Clear
1:15 PM 57.2 °F - 24.8 °F 29% 30.19 in 10.0 mi SW 16.1 mph 21.9 mph N/A   Clear
1:35 PM 57.2 °F - 24.8 °F 29% 30.18 in 10.0 mi SW 17.3 mph 24.2 mph N/A   Clear
1:55 PM 57.2 °F - 24.8 °F 29% 30.18 in 10.0 mi SW 16.1 mph 21.9 mph N/A   Clear
2:15 PM 57.2 °F - 24.8 °F 29% 30.17 in 10.0 mi WSW 15.0 mph 20.7 mph N/A   Clear
2:35 PM 59.0 °F - 24.8 °F 27% 30.16 in 10.0 mi SW 15.0 mph 20.7 mph N/A   Clear
2:55 PM 59.0 °F - 24.8 °F 27% 30.16 in 10.0 mi WSW 15.0 mph 23.0 mph N/A   Clear
3:15 PM 59.0 °F - 26.6 °F 29% 30.15 in 10.0 mi SW 15.0 mph 21.9 mph N/A   Clear
3:35 PM 59.0 °F - 24.8 °F 27% 30.15 in 10.0 mi SW 15.0 mph 20.7 mph N/A   Clear
3:55 PM 59.0 °F - 26.6 °F 29% 30.16 in 10.0 mi SW 10.4 mph 17.3 mph N/A   Clear
4:15 PM 57.2 °F - 26.6 °F 31% 30.15 in 10.0 mi SW 9.2 mph - N/A   Clear
4:35 PM 57.2 °F - 28.4 °F 33% 30.16 in 10.0 mi SW 8.1 mph - N/A   Clear
4:55 PM 55.4 °F - 26.6 °F 33% 30.15 in 10.0 mi SW 9.2 mph - N/A   Clear
5:15 PM 51.8 °F - 28.4 °F 41% 30.15 in 10.0 mi SSW 6.9 mph - N/A   Clear
5:35 PM 48.2 °F - 28.4 °F 46% 30.15 in 10.0 mi SSW 6.9 mph - N/A   Clear
5:55 PM 46.4 °F 41.9 °F 30.2 °F 53% 30.15 in 10.0 mi SSW 9.2 mph - N/A   Clear
6:15 PM 46.4 °F 42.4 °F 30.2 °F 53% 30.15 in 10.0 mi SSW 8.1 mph - N/A   Unknown
6:35 PM 44.6 °F 40.2 °F 28.4 °F 53% 30.15 in 10.0 mi SSW 8.1 mph - N/A   Unknown
6:55 PM 42.8 °F 38.6 °F 30.2 °F 61% 30.15 in 10.0 mi SSW 6.9 mph - N/A   Unknown
7:15 PM 41.0 °F 36.4 °F 30.2 °F 65% 30.15 in 10.0 mi SW 6.9 mph - N/A   Unknown
7:35 PM 41.0 °F 36.4 °F 30.2 °F 65% 30.16 in 10.0 mi SW 6.9 mph - N/A   Unknown
7:55 PM 41.0 °F 35.8 °F 30.2 °F 65% 30.16 in 10.0 mi SSW 8.1 mph - N/A   Unknown
8:15 PM 41.0 °F 36.4 °F 30.2 °F 65% 30.16 in 10.0 mi SSW 6.9 mph - N/A   Unknown
8:35 PM 41.0 °F 36.4 °F 28.4 °F 61% 30.17 in 10.0 mi SSW 6.9 mph - N/A   Unknown
8:55 PM 39.2 °F 33.6 °F 28.4 °F 65% 30.17 in 10.0 mi SSW 8.1 mph - N/A   Unknown
9:15 PM 39.2 °F 33.6 °F 28.4 °F 65% 30.17 in 10.0 mi SSW 8.1 mph - N/A   Unknown
9:35 PM 39.2 °F 33.0 °F 28.4 °F 65% 30.16 in 10.0 mi SSW 9.2 mph - N/A   Unknown
9:55 PM 39.2 °F 32.5 °F 28.4 °F 65% 30.16 in 10.0 mi South 10.4 mph - N/A   Unknown
10:15 PM 39.2 °F 32.5 °F 28.4 °F 65% 30.16 in 10.0 mi SSW 10.4 mph - N/A   Unknown
10:35 PM 39.2 °F 32.5 °F 28.4 °F 65% 30.16 in 10.0 mi SSW 10.4 mph - N/A   Unknown
10:55 PM 41.0 °F 35.2 °F 28.4 °F 61% 30.16 in 10.0 mi SSW 9.2 mph - N/A   Unknown
11:15 PM 39.2 °F 33.0 °F 28.4 °F 65% 30.16 in 10.0 mi SSW 9.2 mph - N/A   Unknown
11:35 PM 39.2 °F 33.6 °F 28.4 °F 65% 30.16 in 10.0 mi SSW 8.1 mph - N/A   Unknown
11:55 PM 39.2 °F 33.0 °F 28.4 °F 65% 30.15 in 10.0 mi South 9.2 mph - N/A   Unknown